Total_Precipitation_Accumulation
0.01 0.00 0.00 0.00 0.00 0.01 0.00 0.00 0.00 0.00 0.00 0.01 0.01 0.00 0.00 0.00 0.00 0.01 0.03 0.03 0.04 0.05 0.03 0.04 0.04 0.01 0.01 0.02 0.08 0.17 0.23 0.23 0.34 0.38 0.31 0.24 0.14 0.08 0.04 0.02 0.01 0.01 0.00
0.00 0.00 0.00 0.00 0.00 0.00 0.01 0.00 0.00 0.00 0.01 0.01 0.01 0.00 0.00 0.00 0.00 0.00 0.03 0.03 0.05 0.09 0.08 0.10 0.09 0.05 0.04 0.04 0.08 0.15 0.21 0.21 0.25 0.31 0.33 0.38 0.37 0.27 0.14 0.07 0.06 0.03 0.01
0.02 0.00 0.00 0.01 0.02 0.02 0.02 0.01 0.00 0.00 0.00 0.01 0.00 0.00 0.00 0.00 0.00 0.00 0.01 0.02 0.04 0.10 0.17 0.22 0.22 0.18 0.13 0.10 0.10 0.14 0.19 0.20 0.21 0.24 0.24 0.23 0.22 0.21 0.17 0.12 0.08 0.05 0.01
0.06 0.03 0.03 0.05 0.05 0.03 0.03 0.02 0.00 0.00 0.00 0.00 0.00 0.00 0.00 0.00 0.00 0.00 0.00 0.00 0.01 0.05 0.12 0.19 0.29 0.36 0.31 0.23 0.14 0.11 0.11 0.12 0.12 0.12 0.10 0.08 0.06 0.06 0.06 0.04 0.05 0.06 0.03
0.20 0.13 0.13 0.13 0.11 0.08 0.05 0.03 0.02 0.01 0.00 0.00 0.00 0.00 0.00 0.00 0.00 0.00 0.00 0.00 0.00 0.00 0.01 0.04 0.11 0.13 0.22 0.28 0.20 0.10 0.08 0.06 0.05 0.05 0.04 0.02 0.01 0.00 0.01 0.01 0.02 0.03 0.03
0.42 0.34 0.31 0.22 0.15 0.16 0.16 0.13 0.08 0.05 0.03 0.01 0.00 0.00 0.00 0.00 0.00 0.00 0.00 0.00 0.00 0.00 0.00 0.00 0.02 0.02 0.08 0.22 0.24 0.12 0.06 0.04 0.05 0.05 0.02 0.00 0.00 0.00 0.00 0.00 0.01 0.01 0.01
0.42 0.42 0.43 0.37 0.27 0.22 0.25 0.26 0.25 0.19 0.11 0.04 0.04 0.03 0.01 0.00 0.00 0.00 0.00 0.00 0.00 0.00 0.00 0.00 0.02 0.03 0.03 0.03 0.05 0.07 0.06 0.07 0.09 0.07 0.03 0.01 0.00 0.00 0.00 0.00 0.01 0.01 0.02
0.29 0.29 0.42 0.46 0.36 0.33 0.36 0.42 0.41 0.35 0.24 0.11 0.17 0.24 0.14 0.09 0.03 0.00 0.00 0.00 0.00 0.00 0.00 0.00 0.00 0.00 0.01 0.03 0.01 0.01 0.03 0.06 0.06 0.04 0.02 0.01 0.00 0.00 0.00 0.00 0.01 0.02 0.03
0.29 0.27 0.38 0.45 0.36 0.37 0.43 0.46 0.41 0.46 0.44 0.28 0.28 0.43 0.35 0.28 0.23 0.06 0.00 0.00 0.00 0.00 0.00 0.00 0.00 0.00 0.00 0.01 0.01 0.00 0.00 0.01 0.01 0.02 0.01 0.00 0.00 0.01 0.01 0.03 0.04 0.04 0.03
0.28 0.23 0.24 0.26 0.25 0.28 0.26 0.22 0.28 0.48 0.64 0.57 0.48 0.43 0.34 0.27 0.26 0.18 0.06 0.00 0.00 0.00 0.00 0.00 0.00 0.00 0.00 0.00 0.00 0.00 0.00 0.00 0.00 0.01 0.01 0.01 0.01 0.01 0.02 0.03 0.03 0.03 0.02
0.32 0.27 0.24 0.24 0.24 0.25 0.19 0.19 0.29 0.43 0.56 0.69 0.66 0.50 0.36 0.29 0.19 0.20 0.17 0.09 0.03 0.00 0.00 0.00 0.00 0.00 0.00 0.00 0.00 0.00 0.00 0.00 0.00 0.00 0.01 0.01 0.02 0.02 0.02 0.02 0.02 0.02 0.01
0.30 0.31 0.33 0.31 0.24 0.20 0.15 0.18 0.28 0.30 0.34 0.43 0.44 0.36 0.31 0.28 0.31 0.30 0.25 0.23 0.16 0.03 0.00 0.00 0.00 0.00 0.00 0.00 0.00 0.00 0.00 0.00 0.00 0.00 0.00 0.00 0.01 0.01 0.01 0.01 0.01 0.01 0.01
0.30 0.32 0.32 0.28 0.22 0.17 0.14 0.16 0.21 0.16 0.15 0.22 0.25 0.21 0.21 0.24 0.27 0.28 0.27 0.32 0.32 0.15 0.05 0.01 0.00 0.00 0.00 0.00 0.00 0.00 0.00 0.00 0.00 0.00 0.00 0.00 0.00 0.00 0.00 0.00 0.00 0.00 0.00
0.33 0.29 0.28 0.25 0.22 0.18 0.13 0.14 0.12 0.07 0.07 0.12 0.13 0.10 0.10 0.17 0.25 0.25 0.26 0.33 0.34 0.34 0.23 0.06 0.01 0.01 0.00 0.00 0.00 0.00 0.00 0.00 0.00 0.00 0.00 0.00 0.00 0.00 0.00 0.00 0.00 0.00 0.00
0.24 0.23 0.25 0.25 0.22 0.17 0.11 0.11 0.09 0.06 0.04 0.05 0.06 0.07 0.07 0.12 0.19 0.24 0.26 0.27 0.28 0.31 0.33 0.19 0.09 0.04 0.02 0.01 0.01 0.00 0.00 0.00 0.00 0.00 0.00 0.00 0.00 0.00 0.00 0.00 0.00 0.00 0.00
0.23 0.22 0.20 0.17 0.14 0.10 0.06 0.05 0.06 0.09 0.07 0.06 0.07 0.07 0.07 0.09 0.14 0.18 0.25 0.29 0.28 0.28 0.29 0.21 0.15 0.09 0.07 0.04 0.04 0.01 0.00 0.00 0.00 0.00 0.00 0.00 0.00 0.00 0.00 0.00 0.00 0.00 0.00
0.19 0.18 0.13 0.10 0.13 0.11 0.07 0.08 0.07 0.06 0.06 0.07 0.08 0.08 0.12 0.18 0.16 0.16 0.23 0.27 0.30 0.31 0.28 0.26 0.15 0.09 0.09 0.07 0.09 0.03 0.01 0.01 0.01 0.01 0.01 0.00 0.00 0.00 0.00 0.00 0.00 0.00 0.00
0.17 0.16 0.13 0.08 0.09 0.13 0.12 0.12 0.12 0.08 0.07 0.06 0.04 0.03 0.04 0.08 0.13 0.17 0.23 0.25 0.28 0.31 0.29 0.27 0.22 0.16 0.16 0.12 0.12 0.09 0.06 0.03 0.02 0.06 0.09 0.02 0.00 0.00 0.00 0.00 0.00 0.00 0.00
0.17 0.17 0.19 0.14 0.13 0.14 0.15 0.13 0.12 0.11 0.08 0.05 0.03 0.03 0.02 0.03 0.08 0.13 0.22 0.29 0.32 0.32 0.31 0.25 0.28 0.29 0.22 0.17 0.15 0.10 0.07 0.07 0.06 0.06 0.12 0.06 0.01 0.00 0.00 0.00 0.00 0.00 0.00
0.19 0.17 0.14 0.11 0.13 0.19 0.22 0.17 0.12 0.13 0.08 0.05 0.03 0.02 0.02 0.03 0.05 0.11 0.19 0.32 0.41 0.43 0.41 0.34 0.32 0.33 0.30 0.24 0.18 0.14 0.13 0.11 0.09 0.07 0.06 0.06 0.04 0.01 0.00 0.00 0.00 0.00 0.00
0.13 0.14 0.10 0.09 0.12 0.20 0.22 0.18 0.13 0.10 0.11 0.09 0.06 0.03 0.03 0.03 0.04 0.07 0.11 0.22 0.32 0.42 0.47 0.48 0.43 0.38 0.32 0.26 0.21 0.18 0.15 0.16 0.12 0.10 0.09 0.07 0.05 0.04 0.02 0.01 0.01 0.00 0.00
0.08 0.13 0.12 0.12 0.14 0.16 0.19 0.14 0.15 0.16 0.17 0.16 0.11 0.06 0.05 0.03 0.02 0.03 0.04 0.06 0.11 0.19 0.30 0.39 0.44 0.40 0.40 0.34 0.30 0.24 0.17 0.15 0.13 0.11 0.09 0.11 0.11 0.08 0.07 0.07 0.08 0.07 0.03
0.06 0.08 0.08 0.12 0.14 0.11 0.09 0.07 0.16 0.27 0.26 0.18 0.10 0.07 0.07 0.03 0.02 0.03 0.07 0.07 0.08 0.09 0.10 0.16 0.24 0.30 0.34 0.37 0.29 0.23 0.18 0.16 0.16 0.13 0.08 0.07 0.09 0.10 0.10 0.10 0.08 0.06 0.04
0.03 0.06 0.07 0.13 0.12 0.07 0.05 0.05 0.12 0.20 0.25 0.22 0.12 0.07 0.08 0.08 0.07 0.07 0.06 0.07 0.10 0.12 0.08 0.05 0.12 0.20 0.22 0.28 0.27 0.24 0.21 0.16 0.14 0.10 0.07 0.05 0.06 0.07 0.07 0.07 0.06 0.04 0.02
0.01 0.05 0.07 0.09 0.06 0.02 0.01 0.03 0.07 0.20 0.26 0.25 0.17 0.16 0.16 0.16 0.19 0.13 0.06 0.07 0.12 0.12 0.09 0.06 0.06 0.09 0.11 0.16 0.20 0.24 0.25 0.21 0.19 0.16 0.12 0.08 0.07 0.06 0.06 0.07 0.06 0.04 0.03
0.00 0.01 0.03 0.04 0.03 0.03 0.01 0.01 0.03 0.11 0.17 0.21 0.22 0.23 0.26 0.19 0.20 0.13 0.05 0.16 0.25 0.19 0.12 0.14 0.17 0.19 0.19 0.23 0.27 0.28 0.35 0.36 0.33 0.30 0.23 0.18 0.17 0.16 0.15 0.13 0.08 0.04 0.03